{"data":{"norad_id":62148,"epoch":"2026-05-25T03:33:46.903392Z","epoch_age_seconds":55541,"freshness":"FRESH","line1":"1 62148U 24224K   26145.14845953  .00017156  00000+0  63116-3 0  9991","line2":"2 62148  43.0027  86.2878 0001103 259.0214 101.0514 15.27597460 84118","mean_motion":15.2759746,"eccentricity":0.0001103,"inclination_deg":43.0027,"raan_deg":86.2878,"arg_perigee_deg":259.0214,"mean_anomaly_deg":101.0514,"bstar":0.00063116,"rev_number":8411,"period_min":94.265671271802,"perigee_km":482.24003195662,"apogee_km":483.75359807622,"semimajor_km":6861.1338150164,"source":"CELESTRAK","updated_at":"2026-05-25T13:38:19.570837Z"}}